Location: Unspecified
(0.0000°N, 0.0000°E)
Time: 06:51:42
(UTC+00:00)

N. Korean satellite - Pass Details

Date: 22 July 2021
Orbit: 451 x 498 km, 97.2° (Epoch: 31 July)

Event Time Altitude Azimuth Distance (km) Brightness Sun altitude
Rises 04:05:11 0° 46° (NE) 2,512 11.2 -28.3°
Reaches altitude 10° 04:08:26 10° 79° (E) 1,626 10.2 -27.5°
Maximum altitude 04:09:43 12° 101° (E) 1,520 9.7 -27.2°
Drops below altitude 10° 04:11:00 10° 123° (ESE) 1,620 9.6 -26.9°
Enters shadow 04:12:31 - 142° (SE) 1,951 9.8 -26.6°
